EW9439 Weather Reports


time (UTC)temp
F
wind
direction
speed
knots
gust
knots
rain 1hr
in
rain 24hr
in
rain mn
in
humidity
%
barometer
mb
20260902073032 74 205 0.0 0.0 0.00 0.00 0.00 93 1013.6
20260902071538 74 205 0.0 0.0 0.00 0.00 0.00 92 1013.6
20260902070034 74 205 0.0 0.0 0.00 0.00 0.00 92 1013.6
20260902064536 74 205 0.0 0.0 0.00 0.00 0.00 91 1013.7
20260902063038 75 205 0.0 0.0 0.00 0.00 0.00 92 1013.8
20260902061544 75 205 0.0 0.0 0.00 0.00 0.00 91 1013.9
20260902060052 75 205 0.0 0.0 0.00 0.00 0.00 91 1013.9
20260902054544 75 205 0.0 0.0 0.00 0.00 0.00 91 1014.1
20260902053050 75 205 0.0 0.0 0.00 0.00 0.00 90 1014.1
20260902051551 75 205 0.0 0.0 0.00 0.00 0.00 90 1014.1
20260902050055 76 205 0.0 0.0 0.00 0.00 0.00 90 1014.1
20260902044555 76 205 0.0 0.0 0.00 0.00 0.00 90 1014.2
20260902043057 76 205 0.0 0.0 0.00 0.00 0.00 90 1014.1
20260902043002 76 205 0.0 0.0 0.00 0.00 0.00 90 1014.2
20260902041607 76 205 0.0 0.0 0.00 0.00 0.00 89 1014.1
20260902041502 76 205 0.0 0.0 0.00 0.00 0.00 89 1014.1
20260902040057 77 205 0.0 0.0 0.00 0.00 0.00 89 1014.1
20260902034601 77 205 0.0 0.0 0.00 0.00 0.00 88 1014.2
20260902033107 77 205 0.0 0.0 0.00 0.00 0.00 87 1014.2
20260902033003 77 205 0.0 0.0 0.00 0.00 0.00 86 1014.2
20260902031506 77 205 0.0 0.0 0.00 0.00 0.00 86 1014.1
20260902030008 78 205 0.0 0.0 0.00 0.00 0.00 85 1014.1
20260902024510 78 205 0.0 0.0 0.00 0.00 0.00 85 1014.1
20260902023025 78 205 0.0 0.0 0.00 0.00 0.00 84 1014.1
20260902021526 79 205 0.0 0.0 0.00 0.00 0.00 83 1014.0
20260902020017 79 205 0.0 0.0 0.00 0.00 0.00 82 1013.9
20260902014518 80 205 0.0 0.0 0.00 0.00 0.00 80 1013.6
20260902013019 80 205 0.0 0.0 0.00 0.00 0.00 79 1013.5
20260902011520 81 205 0.0 0.0 0.00 0.00 0.00 78 1013.4
20260902010020 81 205 0.0 0.0 0.00 0.00 0.00 76 1013.1
20260902004522 82 205 0.0 0.0 0.00 0.00 0.00 75 1013.1
20260902003026 83 205 0.0 0.0 0.00 0.00 0.00 73 1013.1
20260902001527 84 205 0.0 0.0 0.00 0.00 0.00 72 1013.1
20260902000028 85 205 0.0 0.0 0.00 0.00 0.00 69 1013.2
20260901234530 86 205 0.0 0.0 0.00 0.00 0.00 67 1013.2
20260901233032 87 205 0.0 0.0 0.00 0.00 0.00 67 1013.3
20260901231531 87 205 0.0 0.0 0.00 0.00 0.00 65 1013.2
20260901230036 88 205 0.0 0.0 0.00 0.00 0.00 64 1013.2
20260901224529 89 205 0.0 0.0 0.00 0.00 0.00 59 1013.2
20260901223028 89 205 0.0 0.0 0.00 0.00 0.00 59 1013.1
20260901221532 89 13 0.0 0.0 0.00 0.00 0.00 58 1013.1
20260901220051 89 13 0.0 0.0 0.00 0.00 0.00 62 1013.0
20260901214523 89 13 0.0 0.0 0.00 0.00 0.00 58 1013.0
20260901213100 90 13 0.0 0.0 0.00 0.00 0.00 57 1013.1
20260901211534 90 13 0.0 0.0 0.00 0.00 0.00 56 1013.2
20260901210047 91 13 0.0 0.0 0.00 0.00 0.00 57 1013.2
20260901204541 91 157 0.0 0.0 0.00 0.00 0.00 55 1013.4
20260901203100 91 147 0.0 0.0 0.00 0.00 0.00 54 1013.6
20260901201541 91 144 0.0 0.9 0.00 0.00 0.00 58 1013.9
20260901200046 92 350 0.0 4.3 0.00 0.00 0.00 55 1013.9
20260901194549 91 72 0.0 0.0 0.00 0.00 0.00 56 1014.0
20260901193101 91 72 0.0 0.0 0.00 0.00 0.00 54 1014.4
20260901191557 92 360 0.0 0.0 0.00 0.00 0.00 53 1014.5
20260901184603 91 81 0.0 1.7 0.00 0.00 0.00 55 1014.8
20260901183102 89 329 0.0 0.0 0.00 0.00 0.00 61 1014.8
20260901183001 89 329 0.0 0.0 0.00 0.00 0.00 61 1014.8
20260901181505 88 280 0.0 0.0 0.00 0.00 0.00 61 1015.0
20260901180055 90 266 0.0 0.0 0.00 0.00 0.00 62 1015.1
20260901180005 90 266 0.0 0.0 0.00 0.00 0.00 63 1015.1
20260901174547 89 223 0.0 0.0 0.00 0.00 0.00 64 1015.3
20260901173058 89 218 0.0 0.0 0.00 0.00 0.00 61 1015.4
20260901171551 88 109 0.0 0.0 0.00 0.00 0.00 64 1015.6
20260901170106 88 109 0.0 0.0 0.00 0.00 0.00 64 1015.8
20260901164505 89 109 0.0 0.0 0.00 0.00 0.00 62 1016.1
20260901163008 89 108 0.0 0.0 0.00 0.00 0.00 61 1016.2
20260901161523 88 108 0.0 0.0 0.00 0.00 0.00 62 1016.4
20260901160032 89 101 0.0 0.0 0.00 0.00 0.00 59 1016.7
20260901154530 88 179 0.0 0.0 0.00 0.00 0.00 68 1016.8
20260901153034 88 179 0.0 0.0 0.00 0.00 0.00 67 1016.8
20260901151532 86 180 0.0 0.0 0.00 0.00 0.00 70 1016.9
20260901150034 85 180 0.0 0.0 0.00 0.00 0.00 73 1016.9
20260901144536 84 180 0.0 0.0 0.00 0.00 0.00 73 1016.9
20260901143044 83 355 0.0 0.0 0.00 0.00 0.00 77 1016.9
20260901141543 82 355 0.0 0.0 0.00 0.00 0.00 80 1016.8
20260901140050 80 355 0.0 0.0 0.00 0.00 0.00 82 1016.6
20260901134546 80 355 0.0 0.0 0.00 0.00 0.00 84 1016.6
20260901133041 78 355 0.0 0.0 0.00 0.00 0.00 88 1016.5
20260901131539 76 355 0.0 0.0 0.00 0.00 0.00 93 1016.5
20260901130039 74 355 0.0 0.0 0.00 0.00 0.00 95 1016.6
20260901124539 72 355 0.0 0.0 0.00 0.00 0.00 96 1016.6
20260901123042 71 355 0.0 0.0 0.00 0.00 0.00 96 1016.6
20260901121542 71 355 0.0 0.0 0.00 0.00 0.00 96 1016.5
20260901120054 70 355 0.0 0.0 0.00 0.00 0.00 95 1016.3
20260901114554 70 355 0.0 0.0 0.00 0.00 0.00 95 1016.0
20260901113049 70 355 0.0 0.0 0.00 0.00 0.00 95 1015.8
20260901111554 70 355 0.0 0.0 0.00 0.00 0.00 95 1015.6
20260901110058 70 355 0.0 0.0 0.00 0.00 0.00 95 1015.5
20260901104557 70 355 0.0 0.0 0.00 0.00 0.00 94 1015.4
20260901103100 70 355 0.0 0.0 0.00 0.00 0.00 94 1015.3
20260901103002 70 355 0.0 0.0 0.00 0.00 0.00 94 1015.4
20260901101607 70 355 0.0 0.0 0.00 0.00 0.00 94 1015.3
20260901101507 70 355 0.0 0.0 0.00 0.00 0.00 94 1015.3
20260901100010 71 355 0.0 0.0 0.00 0.00 0.00 94 1015.2
20260901094514 71 355 0.0 0.0 0.00 0.00 0.00 94 1015.0
20260901093010 71 355 0.0 0.0 0.00 0.00 0.00 94 1015.1
20260901091510 71 355 0.0 0.0 0.00 0.00 0.00 94 1015.0
20260901090012 71 355 0.0 0.0 0.00 0.00 0.00 94 1014.8
20260901084512 71 355 0.0 0.0 0.00 0.00 0.00 93 1014.8
20260901083011 71 355 0.0 0.0 0.00 0.00 0.00 93 1014.8
20260901081512 71 355 0.0 0.0 0.00 0.00 0.00 93 1015.0
20260901080012 72 355 0.0 0.0 0.00 0.00 0.00 93 1014.8
20260901074516 72 355 0.0 0.0 0.00 0.00 0.00 92 1014.7
20260901073056 72 355 0.0 0.0 0.00 0.00 0.00 92 1014.7